Retour au catalogue

SNAP-3 EDDIE

ActifScienceVLEO
NORAD 40972·PAYLOAD·🇺🇸 United States

Lancé Oct 8, 2015 depuis Vandenberg Space Force Base

Loading…

Prochains Passages (prochaines 24 heures)

TLE

FraisSource: Space-Track

Époque: Sep 14, 2026, 15:18 UTC

1 40972U 15058J   26257.63763440  .01862079  31921-2  15726-2 0  9990
2 40972  64.7305 137.3560 0015894 264.1488  95.7872 16.13796764133133

Suivez SNAP-3 EDDIE en temps réel avec AllMySat

Download on the App Store